User: anonymous   Login
Location: Caltech
(34.1382°N, 118.1253°W)
Time: 15:26:23
(UTC-07:00)
Language:

Iridium 94 - Orbit

View from above orbital plane
View from above orbital plane
View from above satellite
View from above satellite

Ground track
Ground track

The orbit data is extracted from the following two-line orbital elements,

1 27374U 02005C   16180.55350459  .00000093  00000-0  26100-4 0  9997
2 27374  86.3955  43.5704 0002863 100.3410 321.9712 14.34217533765266
Epoch (UTC): 28 June 2016 13:17:02
Eccentricity: 0.0002863
inclination: 86.3955°
perigee height: 775 km
apogee height: 780 km
right ascension of ascending node: 43.5704°
argument of perigee: 100.3410°
revolutions per day: 14.34217533
mean anomaly at epoch: 321.9712°
orbit number at epoch: 76526

The dashed part of the orbit path shows where the satellite is in the earth's shadow,  

DLR